Location: El Atico
(3.0014°N, 75.4378°W)
Time: 11:28:42
(UTC+00:00)

Cosmos 2297 Rocket - Pass Details

Date: 09 December 2025
Orbit: 837 x 844 km, 71.0° (Epoch: 24 January)

Event Time Altitude Azimuth Distance (km) Brightness Sun altitude
Rises 23:33:35 0° 347° (NNW) 3,385 5.2 -10.2°
Reaches altitude 10° 23:36:01 10° 348° (NNW) 2,452 4.5 -10.7°
Maximum altitude 23:41:39 80° 74° (ENE) 856 2.1 -12.0°
Drops below altitude 10° 23:47:18 10° 162° (SSE) 2,457 4.7 -13.3°
Sets 23:49:44 0° 162° (SSE) 3,392 5.4 -13.9°
